Simultaneous Nadir Overpasses (SNOs) Predictions

Prediction of SNOs between LANDSAT-8 and METOP-B Satellite Orbit:

Table of predicted SNOs for the next 14.0 days since TLE Epoch: 9/18/2015
Index Date (LANDSAT-8) Time (LANDSAT-8) Lat,Lon (LANDSAT-8) SZA (LANDSAT-8 ) Date (METOP-B) Time (METOP-B) Lat,Lon (METOP-B) SZA (METOP-B ) Distance(km) Time Diff (sec)
1 09/19/2015 18:45:01 -81.14, 119.01 98.01 09/19/2015 18:44:06 -81.14, 119.08 98.03 1.13 55
2 09/19/2015 19:34:27 81.15, -73.25 82.02 09/19/2015 19:34:46 81.15, -73.36 82.02 2.01 19
3 09/22/2015 14:19:17 -81.12,-174.79 96.93 09/22/2015 14:18:28 -81.13,-174.88 96.96 1.49 49
4 09/22/2015 15:08:42 81.15, -6.72 83.15 09/22/2015 15:09:06 81.16, -6.58 83.18 2.57 24
5 09/25/2015 09:53:33 -81.13,-108.30 95.81 09/25/2015 09:52:50 -81.13,-108.49 95.85 3.28 43
6 09/25/2015 10:42:58 81.15, 59.75 84.27 09/25/2015 10:43:28 81.16, 59.81 84.30 1.12 30
7 09/28/2015 05:27:48 -81.15, -41.49 94.64 09/28/2015 05:27:10 -81.15, -41.36 94.64 2.18 38
8 09/28/2015 06:17:14 81.15, 126.17 85.38 09/28/2015 06:17:50 81.16, 126.18 85.41 0.58 36
9 10/01/2015 01:02:03 -81.15, 24.89 93.53 10/01/2015 01:01:31 -81.15, 24.99 93.54 1.63 32




NCC Satellite Simultaneous Nadir Overpasses (SNOs) Prediction Service
